| time (UTC) | temp F | wind direction | speed MPH | gust MPH | rain 1hr in | rain 24hr in | rain mn in | humidity % | barometer mb |
| 20260906120051 | 72 | 0 | 0.0 | 4.0 | 0.00 | 0.01 | 0.00 | 99 | 1013.5 |
| 20260906114548 | 71 | 0 | 0.0 | 1.0 | 0.00 | 0.01 | 0.00 | 99 | 1013.7 |
| 20260906113050 | 71 | 0 | 0.0 | 1.0 | 0.00 | 0.01 | 0.00 | 99 | 1013.4 |
| 20260906111550 | 71 | 0 | 0.0 | 0.0 | 0.00 | 0.01 | 0.00 | 99 | 1013.0 |
| 20260906110047 | 71 | 0 | 0.0 | 4.0 | 0.00 | 0.01 | 0.00 | 99 | 1013.0 |
| 20260906104554 | 71 | 0 | 0.0 | 0.0 | 0.00 | 0.01 | 0.00 | 99 | 1012.9 |
| 20260906103050 | 71 | 0 | 0.0 | 1.0 | 0.00 | 0.01 | 0.00 | 99 | 1012.7 |
| 20260906101547 | 71 | 0 | 0.0 | 0.0 | 0.00 | 0.01 | 0.00 | 99 | 1012.4 |
| 20260906100047 | 71 | 0 | 0.0 | 0.0 | 0.00 | 0.01 | 0.00 | 99 | 1012.3 |
| 20260906094545 | 70 | 0 | 0.0 | 0.0 | 0.00 | 0.01 | 0.00 | 99 | 1012.2 |
| 20260906093051 | 70 | 0 | 0.0 | 1.0 | 0.00 | 0.01 | 0.00 | 99 | 1011.9 |
| 20260906091550 | 70 | 0 | 0.0 | 0.0 | 0.00 | 0.01 | 0.00 | 99 | 1011.7 |
| 20260906090051 | 70 | 0 | 0.0 | 0.0 | 0.00 | 0.01 | 0.00 | 99 | 1011.5 |
| 20260906084549 | 70 | 0 | 0.0 | 0.0 | 0.00 | 0.01 | 0.00 | 99 | 1011.4 |
| 20260906083049 | 70 | 0 | 0.0 | 0.0 | 0.00 | 0.01 | 0.00 | 99 | 1011.5 |
| 20260906081549 | 70 | 0 | 0.0 | 0.0 | 0.00 | 0.01 | 0.00 | 99 | 1011.5 |
| 20260906080048 | 70 | 0 | 0.0 | 0.0 | 0.00 | 0.01 | 0.00 | 99 | 1011.4 |
| 20260906074550 | 70 | 0 | 0.0 | 0.0 | 0.00 | 0.01 | 0.00 | 99 | 1011.2 |
| 20260906073049 | 70 | 0 | 0.0 | 0.0 | 0.00 | 0.01 | 0.00 | 99 | 1011.0 |
| 20260906071548 | 71 | 0 | 0.0 | 0.0 | 0.00 | 0.01 | 0.00 | 99 | 1010.8 |
| 20260906070045 | 71 | 0 | 0.0 | 0.0 | 0.00 | 0.01 | 0.00 | 99 | 1011.1 |
| 20260906064550 | 71 | 0 | 0.0 | 0.0 | 0.00 | 0.01 | 0.00 | 99 | 1011.3 |
| 20260906063049 | 71 | 0 | 0.0 | 0.0 | 0.00 | 0.01 | 0.00 | 98 | 1011.3 |
| 20260906061551 | 71 | 0 | 0.0 | 0.0 | 0.00 | 0.01 | 0.00 | 99 | 1011.1 |
| 20260906060059 | 71 | 0 | 0.0 | 0.0 | 0.00 | 0.01 | 0.00 | 98 | 1011.4 |
| 20260906054601 | 71 | 0 | 0.0 | 0.0 | 0.00 | 0.03 | 0.00 | 99 | 1011.5 |
| 20260906053048 | 71 | 0 | 0.0 | 0.0 | 0.00 | 0.03 | 0.00 | 98 | 1011.6 |
| 20260906051548 | 72 | 0 | 0.0 | 0.0 | 0.00 | 0.03 | 0.00 | 98 | 1011.9 |
| 20260906050046 | 72 | 0 | 0.0 | 0.0 | 0.00 | 0.03 | 0.00 | 98 | 1012.0 |
| 20260906044550 | 72 | 0 | 0.0 | 0.0 | 0.00 | 0.03 | 0.00 | 98 | 1011.9 |
| 20260906043050 | 72 | 0 | 0.0 | 0.0 | 0.00 | 0.03 | 0.00 | 98 | 1012.2 |
| 20260906041547 | 72 | 0 | 0.0 | 0.0 | 0.00 | 0.03 | 0.00 | 98 | 1012.2 |
| 20260906040044 | 73 | 0 | 0.0 | 0.0 | 0.00 | 0.03 | 0.00 | 98 | 1012.1 |
| 20260906034600 | 73 | 0 | 0.0 | 1.0 | 0.00 | 0.03 | 0.03 | 98 | 1012.2 |
| 20260906033047 | 73 | 0 | 0.0 | 0.0 | 0.00 | 0.03 | 0.03 | 98 | 1012.3 |
| 20260906031544 | 73 | 0 | 0.0 | 0.0 | 0.00 | 0.03 | 0.03 | 98 | 1012.1 |
| 20260906030054 | 73 | 0 | 0.0 | 0.0 | 0.00 | 0.03 | 0.03 | 98 | 1012.3 |
| 20260906024554 | 73 | 0 | 0.0 | 0.0 | 0.00 | 0.03 | 0.03 | 98 | 1012.1 |
| 20260906023048 | 73 | 0 | 0.0 | 0.0 | 0.00 | 0.03 | 0.03 | 98 | 1012.0 |
| 20260906021547 | 73 | 0 | 0.0 | 0.0 | 0.00 | 0.03 | 0.03 | 98 | 1011.8 |
| 20260906020056 | 74 | 0 | 0.0 | 0.0 | 0.00 | 0.03 | 0.03 | 98 | 1011.5 |
| 20260906014551 | 74 | 0 | 0.0 | 0.0 | 0.00 | 0.03 | 0.03 | 97 | 1011.7 |
| 20260906013049 | 74 | 0 | 0.0 | 0.0 | 0.00 | 0.03 | 0.03 | 97 | 1012.0 |
| 20260906011547 | 74 | 0 | 0.0 | 0.0 | 0.00 | 0.03 | 0.03 | 97 | 1011.8 |
| 20260906010111 | 74 | 0 | 0.0 | 0.0 | 0.00 | 0.03 | 0.03 | 96 | 1011.7 |
| 20260906004556 | 74 | 0 | 0.0 | 0.0 | 0.00 | 0.03 | 0.03 | 96 | 1011.5 |
| 20260906003047 | 74 | 0 | 0.0 | 0.0 | 0.00 | 0.03 | 0.03 | 95 | 1011.4 |
| 20260906001600 | 75 | 0 | 0.0 | 0.0 | 0.00 | 0.03 | 0.03 | 94 | 1011.1 |
| 20260906000048 | 75 | 0 | 0.0 | 0.0 | 0.00 | 0.03 | 0.03 | 93 | 1011.0 |
| 20260905234542 | 75 | 0 | 0.0 | 0.0 | 0.00 | 0.03 | 0.03 | 92 | 1010.8 |
| 20260905233048 | 76 | 0 | 0.0 | 0.0 | 0.00 | 0.03 | 0.03 | 92 | 1010.8 |
| 20260905231549 | 77 | 0 | 0.0 | 0.0 | 0.00 | 0.03 | 0.03 | 91 | 1010.5 |
| 20260905230048 | 77 | 101 | 0.0 | 1.0 | 0.00 | 0.03 | 0.03 | 90 | 1010.2 |
| 20260905224549 | 77 | 0 | 0.0 | 0.0 | 0.00 | 0.03 | 0.03 | 88 | 1010.0 |
| 20260905223055 | 77 | 0 | 0.0 | 1.0 | 0.00 | 0.03 | 0.03 | 89 | 1009.9 |
| 20260905221548 | 77 | 96 | 0.0 | 0.0 | 0.00 | 0.03 | 0.03 | 93 | 1010.2 |
| 20260905220047 | 76 | 0 | 0.0 | 1.0 | 0.00 | 0.03 | 0.03 | 94 | 1010.4 |
| 20260905214551 | 75 | 0 | 0.0 | 1.0 | 0.00 | 0.03 | 0.03 | 96 | 1010.4 |
| 20260905213049 | 75 | 0 | 0.0 | 0.0 | 0.00 | 0.03 | 0.03 | 96 | 1010.1 |
| 20260905211546 | 74 | 0 | 0.0 | 1.0 | 0.00 | 0.03 | 0.03 | 95 | 1009.9 |
| 20260905210107 | 74 | 0 | 0.0 | 0.0 | 0.00 | 0.03 | 0.03 | 96 | 1010.0 |
| 20260905204547 | 74 | 0 | 0.0 | 0.0 | 0.00 | 0.03 | 0.03 | 95 | 1010.1 |
| 20260905203052 | 75 | 0 | 0.0 | 0.0 | 0.00 | 0.03 | 0.03 | 94 | 1009.9 |
| 20260905201549 | 75 | 0 | 0.0 | 0.0 | 0.00 | 0.03 | 0.03 | 93 | 1009.8 |
| 20260905200111 | 76 | 0 | 0.0 | 1.0 | 0.00 | 0.03 | 0.03 | 92 | 1010.4 |
| 20260905194544 | 79 | 0 | 0.0 | 1.0 | 0.00 | 0.03 | 0.02 | 87 | 1011.2 |
| 20260905193048 | 85 | 250 | 2.0 | 6.0 | 0.00 | 0.03 | 0.02 | 72 | 1011.0 |
| 20260905191549 | 88 | 0 | 0.0 | 0.0 | 0.00 | 0.03 | 0.02 | 70 | 1009.8 |
| 20260905190044 | 90 | 0 | 0.0 | 1.0 | 0.00 | 0.03 | 0.02 | 66 | 1009.9 |
| 20260905184551 | 92 | 0 | 0.0 | 3.0 | 0.00 | 0.03 | 0.02 | 64 | 1009.6 |
| 20260905183049 | 94 | 111 | 0.0 | 2.0 | 0.00 | 0.03 | 0.02 | 63 | 1010.0 |
| 20260905181547 | 95 | 151 | 1.0 | 5.0 | 0.00 | 0.03 | 0.02 | 60 | 1009.9 |
| 20260905180048 | 94 | 240 | 0.0 | 7.0 | 0.00 | 0.03 | 0.02 | 62 | 1010.5 |
| 20260905174550 | 94 | 87 | 0.0 | 6.0 | 0.00 | 0.03 | 0.02 | 62 | 1010.8 |
| 20260905173052 | 94 | 89 | 0.0 | 5.0 | 0.00 | 0.03 | 0.02 | 62 | 1011.3 |
| 20260905171547 | 93 | 0 | 0.0 | 6.0 | 0.00 | 0.03 | 0.02 | 65 | 1011.6 |
| 20260905170043 | 93 | 197 | 2.0 | 7.0 | 0.00 | 0.03 | 0.02 | 64 | 1011.7 |
| 20260905164549 | 92 | 152 | 0.0 | 2.0 | 0.00 | 0.03 | 0.02 | 66 | 1012.1 |
| 20260905163048 | 92 | 231 | 0.0 | 3.0 | 0.00 | 0.03 | 0.02 | 69 | 1012.2 |
| 20260905161548 | 91 | 122 | 0.0 | 3.0 | 0.00 | 0.03 | 0.02 | 69 | 1012.2 |
| 20260905160044 | 90 | 146 | 1.0 | 3.0 | 0.00 | 0.03 | 0.02 | 73 | 1012.4 |
| 20260905154559 | 89 | 151 | 0.0 | 2.0 | 0.00 | 0.03 | 0.02 | 78 | 1012.6 |
| 20260905153048 | 89 | 0 | 0.0 | 3.0 | 0.00 | 0.03 | 0.02 | 75 | 1012.9 |
| 20260905151558 | 87 | 91 | 0.0 | 2.0 | 0.00 | 0.03 | 0.02 | 75 | 1013.1 |
| 20260905150051 | 85 | 0 | 0.0 | 2.0 | 0.00 | 0.03 | 0.02 | 81 | 1013.0 |
| 20260905144547 | 83 | 244 | 0.0 | 2.0 | 0.00 | 0.03 | 0.02 | 86 | 1013.0 |
| 20260905143050 | 81 | 120 | 0.0 | 1.0 | 0.00 | 0.03 | 0.02 | 88 | 1013.1 |
| 20260905141546 | 79 | 105 | 0.0 | 1.0 | 0.00 | 0.03 | 0.02 | 92 | 1013.0 |
| 20260905140048 | 78 | 0 | 0.0 | 1.0 | 0.00 | 0.03 | 0.02 | 95 | 1012.6 |
| 20260905134545 | 76 | 0 | 0.0 | 0.0 | 0.00 | 0.03 | 0.02 | 97 | 1012.8 |
| 20260905133049 | 75 | 0 | 0.0 | 3.0 | 0.00 | 0.03 | 0.02 | 99 | 1012.9 |
| 20260905131558 | 74 | 0 | 0.0 | 1.0 | 0.00 | 0.03 | 0.02 | 99 | 1012.9 |
| 20260905130048 | 74 | 0 | 0.0 | 0.0 | 0.00 | 0.03 | 0.02 | 99 | 1012.9 |
| 20260905124544 | 73 | 0 | 0.0 | 1.0 | 0.00 | 0.03 | 0.02 | 99 | 1012.9 |
| 20260905123106 | 72 | 0 | 0.0 | 0.0 | 0.00 | 0.03 | 0.02 | 99 | 1013.0 |
| 20260905121548 | 72 | 0 | 0.0 | 0.0 | 0.00 | 0.02 | 0.01 | 99 | 1013.0 |